Time,TemperatureF,DewpointF,PressureIn,WindDirection,WindDirectionDegrees,WindSpeedMPH,WindSpeedGustMPH,Humidity,HourlyPrecipIn,Conditions,Clouds,dailyrainin,SoftwareType,DateUTC
2013-09-16 00:06:00,52.9,51.0,30.25,NNW,330,0.0,3.0,93,0.00,,,0.00,weatherlink.com 1.10,2013-09-16 05:06:00,
2013-09-16 00:21:00,52.4,51.0,30.25,NE,52,0.0,3.0,94,0.00,,,0.00,weatherlink.com 1.10,2013-09-16 05:21:00,
2013-09-16 00:36:00,52.1,51.0,30.25,NNE,17,0.0,3.0,94,0.00,,,0.00,weatherlink.com 1.10,2013-09-16 05:36:00,
2013-09-16 00:51:00,51.7,50.0,30.26,North,353,1.0,3.0,94,0.00,,,0.00,weatherlink.com 1.10,2013-09-16 05:51:00,
2013-09-16 01:06:00,51.4,50.0,30.27,NW,326,3.0,3.0,94,0.00,,,0.00,weatherlink.com 1.10,2013-09-16 06:06:00,
2013-09-16 01:21:00,50.9,49.0,30.26,North,8,0.0,2.0,94,0.00,,,0.00,weatherlink.com 1.10,2013-09-16 06:21:00,
2013-09-16 01:36:00,50.4,49.0,30.27,ENE,77,0.0,2.0,95,0.00,,,0.00,weatherlink.com 1.10,2013-09-16 06:36:00,
2013-09-16 01:51:00,49.8,49.0,30.27,North,8,0.0,3.0,95,0.00,,,0.00,weatherlink.com 1.10,2013-09-16 06:51:00,
2013-09-16 02:06:00,49.5,48.0,30.27,NNE,27,0.0,0.0,95,0.00,,,0.00,weatherlink.com 1.10,2013-09-16 07:06:00,
2013-09-16 02:21:00,49.4,48.0,30.27,NE,41,0.0,0.0,95,0.00,,,0.00,weatherlink.com 1.10,2013-09-16 07:21:00,
2013-09-16 02:36:00,49.2,48.0,30.27,NNE,15,0.0,1.0,95,0.00,,,0.00,weatherlink.com 1.10,2013-09-16 07:36:00,
2013-09-16 02:51:00,48.8,48.0,30.28,NNE,26,0.0,2.0,95,0.00,,,0.00,weatherlink.com 1.10,2013-09-16 07:51:00,
2013-09-16 03:06:00,48.5,47.0,30.28,North,353,0.0,0.0,95,0.00,,,0.00,weatherlink.com 1.10,2013-09-16 08:06:00,
2013-09-16 03:21:00,48.2,47.0,30.28,North,349,0.0,2.0,95,0.00,,,0.00,weatherlink.com 1.10,2013-09-16 08:21:00,
2013-09-16 03:36:00,47.9,47.0,30.28,North,358,0.0,2.0,95,0.00,,,0.00,weatherlink.com 1.10,2013-09-16 08:36:00,
2013-09-16 03:52:00,47.7,47.0,30.29,ENE,70,0.0,1.0,96,0.00,,,0.00,weatherlink.com 1.10,2013-09-16 08:52:00,
2013-09-16 04:07:00,47.4,46.0,30.29,North,357,0.0,2.0,96,0.00,,,0.00,weatherlink.com 1.10,2013-09-16 09:07:00,
2013-09-16 04:22:00,47.2,46.0,30.29,NNW,334,0.0,2.0,96,0.00,,,0.00,weatherlink.com 1.10,2013-09-16 09:22:00,
2013-09-16 04:37:00,46.9,46.0,30.29,NE,37,0.0,2.0,96,0.00,,,0.00,weatherlink.com 1.10,2013-09-16 09:37:00,
2013-09-16 04:52:00,46.6,46.0,30.29,NNE,13,0.0,1.0,96,0.00,,,0.00,weatherlink.com 1.10,2013-09-16 09:52:00,
2013-09-16 05:07:00,46.3,45.0,30.30,ENE,68,0.0,1.0,96,0.00,,,0.00,weatherlink.com 1.10,2013-09-16 10:07:00,
2013-09-16 05:22:00,46.0,45.0,30.30,North,5,0.0,3.0,96,0.00,,,0.00,weatherlink.com 1.10,2013-09-16 10:22:00,
2013-09-16 05:37:00,45.8,45.0,30.30,NNE,25,0.0,2.0,96,0.00,,,0.00,weatherlink.com 1.10,2013-09-16 10:37:00,
2013-09-16 05:52:00,45.5,45.0,30.30,East,94,0.0,2.0,96,0.00,,,0.00,weatherlink.com 1.10,2013-09-16 10:52:00,
2013-09-16 06:07:00,45.1,44.0,30.30,North,352,0.0,1.0,96,0.00,,,0.00,weatherlink.com 1.10,2013-09-16 11:07:00,
2013-09-16 06:22:00,44.7,44.0,30.31,North,1,1.0,2.0,96,0.00,,,0.00,weatherlink.com 1.10,2013-09-16 11:22:00,
2013-09-16 06:37:00,44.5,44.0,30.32,North,354,0.0,2.0,97,0.00,,,0.00,weatherlink.com 1.10,2013-09-16 11:37:00,
2013-09-16 06:52:00,44.5,44.0,30.32,NNE,18,0.0,1.0,97,0.00,,,0.00,weatherlink.com 1.10,2013-09-16 11:52:00,
2013-09-16 07:07:00,44.3,44.0,30.32,North,3,0.0,1.0,97,0.00,,,0.00,weatherlink.com 1.10,2013-09-16 12:07:00,
2013-09-16 07:22:00,44.3,44.0,30.33,North,356,0.0,1.0,97,0.00,,,0.00,weatherlink.com 1.10,2013-09-16 12:22:00,
2013-09-16 07:37:00,44.5,44.0,30.33,North,357,0.0,1.0,97,0.00,,,0.00,weatherlink.com 1.10,2013-09-16 12:37:00,
2013-09-16 07:52:00,45.1,44.0,30.33,North,357,0.0,0.0,97,0.00,,,0.00,weatherlink.com 1.10,2013-09-16 12:52:00,
2013-09-16 08:07:00,46.1,45.0,30.34,ENE,77,1.0,3.0,97,0.00,,,0.00,weatherlink.com 1.10,2013-09-16 13:07:00,
2013-09-16 08:22:00,48.5,47.0,30.34,East,92,0.0,6.0,95,0.01,,,0.01,weatherlink.com 1.10,2013-09-16 13:22:00,
2013-09-16 08:37:00,50.4,48.0,30.34,ENE,72,2.0,3.0,91,0.01,,,0.01,weatherlink.com 1.10,2013-09-16 13:37:00,
2013-09-16 08:52:00,51.8,49.0,30.34,ENE,69,2.0,6.0,90,0.01,,,0.01,weatherlink.com 1.10,2013-09-16 13:52:00,
2013-09-16 09:07:00,53.0,50.0,30.35,ENE,65,0.0,7.0,89,0.01,,,0.01,weatherlink.com 1.10,2013-09-16 14:07:00,
2013-09-16 09:22:00,53.2,50.0,30.36,East,97,5.0,5.0,89,0.00,,,0.01,weatherlink.com 1.10,2013-09-16 14:22:00,
2013-09-16 09:37:00,55.6,52.0,30.36,ENE,72,1.0,7.0,87,0.00,,,0.01,weatherlink.com 1.10,2013-09-16 14:37:00,
2013-09-16 09:52:00,55.4,52.0,30.36,ESE,110,1.0,9.0,87,0.00,,,0.01,weatherlink.com 1.10,2013-09-16 14:52:00,
2013-09-16 10:07:00,55.0,52.0,30.36,East,101,0.0,8.0,89,0.00,,,0.01,weatherlink.com 1.10,2013-09-16 15:07:00,
2013-09-16 10:22:00,55.6,53.0,30.36,East,84,3.0,6.0,89,0.00,,,0.01,weatherlink.com 1.10,2013-09-16 15:22:00,
2013-09-16 10:37:00,56.5,53.0,30.36,SSW,212,2.0,6.0,87,0.00,,,0.01,weatherlink.com 1.10,2013-09-16 15:37:00,
2013-09-16 10:53:00,56.9,53.0,30.36,SSW,205,0.0,8.0,88,0.00,,,0.01,weatherlink.com 1.10,2013-09-16 15:53:00,
2013-09-16 11:07:00,57.6,53.0,30.36,East,96,7.0,8.0,85,0.00,,,0.01,weatherlink.com 1.10,2013-09-16 16:07:00,
2013-09-16 11:22:00,58.5,54.0,30.36,West,263,0.0,5.0,84,0.00,,,0.01,weatherlink.com 1.10,2013-09-16 16:22:00,
2013-09-16 11:37:00,59.0,54.0,30.36,ENE,77,1.0,4.0,83,0.00,,,0.01,weatherlink.com 1.10,2013-09-16 16:37:00,
2013-09-16 11:52:00,59.1,54.0,30.36,East,100,1.0,7.0,83,0.00,,,0.01,weatherlink.com 1.10,2013-09-16 16:52:00,
2013-09-16 12:07:00,59.7,54.0,30.36,SE,138,0.0,5.0,82,0.00,,,0.01,weatherlink.com 1.10,2013-09-16 17:07:00,
2013-09-16 12:23:00,61.2,55.0,30.36,ESE,122,0.0,3.0,80,0.00,,,0.01,weatherlink.com 1.10,2013-09-16 17:23:00,
2013-09-16 12:38:00,61.5,55.0,30.35,East,90,1.0,4.0,78,0.00,,,0.01,weatherlink.com 1.10,2013-09-16 17:38:00,
2013-09-16 12:53:00,61.6,55.0,30.35,NNW,342,1.0,4.0,78,0.00,,,0.01,weatherlink.com 1.10,2013-09-16 17:53:00,
2013-09-16 13:08:00,62.0,54.0,30.34,ENE,67,0.0,7.0,76,0.00,,,0.01,weatherlink.com 1.10,2013-09-16 18:08:00,
2013-09-16 13:23:00,62.8,54.0,30.34,SSE,147,0.0,5.0,73,0.00,,,0.01,weatherlink.com 1.10,2013-09-16 18:23:00,
2013-09-16 13:38:00,64.8,53.0,30.33,East,96,2.0,6.0,65,0.00,,,0.01,weatherlink.com 1.10,2013-09-16 18:38:00,
2013-09-16 13:53:00,65.4,53.0,30.33,SE,139,3.0,8.0,64,0.00,,,0.01,weatherlink.com 1.10,2013-09-16 18:53:00,
2013-09-16 14:08:00,66.1,53.0,30.32,West,276,1.0,7.0,63,0.00,,,0.01,weatherlink.com 1.10,2013-09-16 19:08:00,
2013-09-16 14:23:00,65.0,51.0,30.31,East,97,6.0,12.0,61,0.00,,,0.01,weatherlink.com 1.10,2013-09-16 19:23:00,
2013-09-16 14:38:00,65.2,51.0,30.31,ESE,106,0.0,8.0,61,0.00,,,0.01,weatherlink.com 1.10,2013-09-16 19:38:00,
2013-09-16 14:53:00,67.2,53.0,30.30,East,82,5.0,7.0,60,0.00,,,0.01,weatherlink.com 1.10,2013-09-16 19:53:00,
2013-09-16 15:08:00,66.7,52.0,30.30,East,92,3.0,10.0,59,0.00,,,0.01,weatherlink.com 1.10,2013-09-16 20:08:00,
2013-09-16 15:23:00,64.9,51.0,30.30,East,84,3.0,6.0,62,0.00,,,0.01,weatherlink.com 1.10,2013-09-16 20:23:00,
2013-09-16 15:38:00,64.0,52.0,30.29,ENE,58,2.0,10.0,66,0.00,,,0.01,weatherlink.com 1.10,2013-09-16 20:38:00,
2013-09-16 15:53:00,64.9,53.0,30.28,SE,131,5.0,8.0,65,0.00,,,0.01,weatherlink.com 1.10,2013-09-16 20:53:00,
2013-09-16 16:08:00,64.2,52.0,30.27,East,90,3.0,11.0,65,0.00,,,0.01,weatherlink.com 1.10,2013-09-16 21:08:00,
2013-09-16 16:23:00,64.5,52.0,30.27,ESE,103,5.0,11.0,64,0.00,,,0.01,weatherlink.com 1.10,2013-09-16 21:23:00,
2013-09-16 16:38:00,65.2,53.0,30.27,East,92,7.0,9.0,64,0.00,,,0.01,weatherlink.com 1.10,2013-09-16 21:38:00,
2013-09-16 16:53:00,64.8,51.0,30.27,SW,233,1.0,13.0,62,0.00,,,0.01,weatherlink.com 1.10,2013-09-16 21:53:00,
2013-09-16 17:08:00,64.1,52.0,30.26,SSW,198,5.0,9.0,64,0.00,,,0.01,weatherlink.com 1.10,2013-09-16 22:08:00,
2013-09-16 17:23:00,64.4,51.0,30.26,East,96,6.0,6.0,62,0.00,,,0.01,weatherlink.com 1.10,2013-09-16 22:23:00,
2013-09-16 17:38:00,62.6,51.0,30.26,East,94,5.0,11.0,66,0.00,,,0.01,weatherlink.com 1.10,2013-09-16 22:38:00,
2013-09-16 17:53:00,62.2,51.0,30.26,East,96,1.0,5.0,67,0.00,,,0.01,weatherlink.com 1.10,2013-09-16 22:53:00,
2013-09-16 18:08:00,61.6,51.0,30.26,SE,146,3.0,8.0,68,0.00,,,0.01,weatherlink.com 1.10,2013-09-16 23:08:00,
2013-09-16 18:23:00,61.1,51.0,30.26,East,87,5.0,7.0,70,0.00,,,0.01,weatherlink.com 1.10,2013-09-16 23:23:00,
2013-09-16 18:38:00,60.5,50.0,30.25,ESE,103,0.0,6.0,68,0.00,,,0.01,weatherlink.com 1.10,2013-09-16 23:38:00,
2013-09-16 18:53:00,59.7,50.0,30.25,ESE,102,0.0,3.0,71,0.00,,,0.01,weatherlink.com 1.10,2013-09-16 23:53:00,
2013-09-16 19:08:00,58.5,50.0,30.25,East,82,1.0,2.0,74,0.00,,,0.01,weatherlink.com 1.10,2013-09-17 00:08:00,
2013-09-16 19:23:00,57.5,50.0,30.24,East,89,0.0,0.0,77,0.00,,,0.01,weatherlink.com 1.10,2013-09-17 00:23:00,
2013-09-16 19:38:00,56.4,50.0,30.24,East,89,0.0,1.0,79,0.00,,,0.01,weatherlink.com 1.10,2013-09-17 00:38:00,
2013-09-16 19:53:00,55.5,50.0,30.24,East,89,0.0,0.0,81,0.00,,,0.01,weatherlink.com 1.10,2013-09-17 00:53:00,
2013-09-16 20:08:00,54.9,50.0,30.24,East,89,0.0,0.0,83,0.00,,,0.01,weatherlink.com 1.10,2013-09-17 01:08:00,
2013-09-16 20:23:00,54.7,50.0,30.23,East,90,0.0,1.0,84,0.00,,,0.01,weatherlink.com 1.10,2013-09-17 01:23:00,
2013-09-16 20:38:00,54.4,50.0,30.24,East,89,0.0,0.0,84,0.00,,,0.01,weatherlink.com 1.10,2013-09-17 01:38:00,
2013-09-16 20:53:00,53.4,49.0,30.23,East,89,0.0,0.0,86,0.00,,,0.01,weatherlink.com 1.10,2013-09-17 01:53:00,
2013-09-16 21:08:00,53.0,49.0,30.24,East,90,0.0,0.0,87,0.00,,,0.01,weatherlink.com 1.10,2013-09-17 02:08:00,
2013-09-16 21:23:00,53.0,49.0,30.24,East,89,0.0,1.0,87,0.00,,,0.01,weatherlink.com 1.10,2013-09-17 02:23:00,
2013-09-16 21:38:00,53.6,50.0,30.24,East,98,0.0,1.0,86,0.00,,,0.01,weatherlink.com 1.10,2013-09-17 02:38:00,
2013-09-16 21:53:00,54.2,50.0,30.24,ESE,111,0.0,3.0,85,0.00,,,0.01,weatherlink.com 1.10,2013-09-17 02:53:00,
2013-09-16 22:08:00,54.2,50.0,30.24,ESE,117,0.0,3.0,85,0.00,,,0.01,weatherlink.com 1.10,2013-09-17 03:08:00,
2013-09-16 22:23:00,54.2,50.0,30.24,ESE,102,0.0,5.0,84,0.00,,,0.01,weatherlink.com 1.10,2013-09-17 03:23:00,
2013-09-16 22:38:00,53.9,49.0,30.24,East,82,2.0,3.0,84,0.00,,,0.01,weatherlink.com 1.10,2013-09-17 03:38:00,
2013-09-16 22:53:00,52.9,49.0,30.25,SE,129,0.0,4.0,86,0.00,,,0.01,weatherlink.com 1.10,2013-09-17 03:53:00,
2013-09-16 23:08:00,52.2,49.0,30.25,East,94,3.0,4.0,87,0.00,,,0.01,weatherlink.com 1.10,2013-09-17 04:08:00,
2013-09-16 23:23:00,51.7,48.0,30.25,East,94,1.0,5.0,88,0.00,,,0.01,weatherlink.com 1.10,2013-09-17 04:23:00,
2013-09-16 23:38:00,51.2,48.0,30.25,ESE,112,0.0,4.0,89,0.00,,,0.01,weatherlink.com 1.10,2013-09-17 04:38:00,
2013-09-16 23:53:00,50.8,48.0,30.25,East,96,0.0,5.0,90,0.00,,,0.01,weatherlink.com 1.10,2013-09-17 04:53:00,